Location: Azul
(36.7830°S, 59.8500°W)
Time: 17:47:32
(UTC-03:00)

AIST 2D - Pass Details

Date: 01 November 2021
Orbit: 445 x 462 km, 97.1° (Epoch: 06 December)

Event Time Altitude Azimuth Distance (km) Brightness Sun altitude
Exits shadow 23:00:55 11° 229° (SW) 1,553 ? -33.1°
Drops below altitude 10° 23:01:05 10° 227° (SW) 1,599 ? -33.1°
Sets 23:03:33 0° 208° (SSW) 2,482 ? -33.4°
